Weather in Keles

Turkey     39°54′43″N   29°14′13″E
temp.,
°C
wind,
m/s
gust,
m/s
humid.,
%
clouds,
%
prec.,
mm/h
press.,
hPa
HPBL,
m
8 august, mon
mon800:00+14ene22930 0.0 101128
03:00+13ne22860 0.0 101016
06:00+12ne22925 0.0 101124
09:00+19ene225836 0.0 1011387
12:00+23ne224719 0.0 10111164
15:00+26ne434147 0.1 10091812
18:00+22nne44513 0.3 1010639
21:00+16ene328015 0.3 101231
9 august, tue
tue900:00+16e1177100 0.2 101211
03:00+16ne2282100 0.2 101122
06:00+14nne229469 0.0 101133
09:00+18ne228092 0.0 1011393
12:00+24nne32514 0.0 10101139
15:00+25nne444592 0.4 10091498
18:00+19nne456597 1.5 1010158
21:00+15nne3268100 1.6 101124
10 august, wed
wed1000:00+14s0170100 0.0 101110
03:00+14n227298 0.0 101123
06:00+12nne229215 0.0 101115
09:00+18nne22681 0.0 1010576
12:00+23nne32433 0.0 10101524
15:00+25nne543914 0.0 10091833
18:00+23nne67385 0.1 10091313
21:00+16ne457013 0.1 1012133
11 august, thu
thu1100:00+16nne44540 0.0 101374
03:00+14nne34660 0.0 101259
06:00+13nne33760 0.0 101350
09:00+19nne34590 0.0 1012808
12:00+22nne44499 0.1 10121573
15:00+23ne434813 0.3 10111582
18:00+19ne447137 0.1 1012759
21:00+14ne33943 0.1 101458
12 august, fri
fri1200:00+15ne22700 0.0 101411
03:00+15nne22620 0.0 101316
06:00+14ne32730 0.0 101331
09:00+20ne34511 0.0 1013713
12:00+24ne33360 0.0 10121456
15:00+26nne533649 0.0 10112106
18:00+23ne43532 0.0 1011966
21:00+16ne229132 0.1 101342